Change the Weather History Date:

Monday, November 5, 2012

  Actual Average Record
Temperature  
Mean Temperature 34 °F -  
Max Temperature 35 °F 41 °F 71 °F (2001)
Min Temperature 30 °F 26 °F 14 °F (2003)
Degree Days  
Heating Degree Days 32    
Moisture  
Dew Point 30 °F    
Average Humidity 86    
Maximum Humidity 100    
Minimum Humidity 70    
Precipitation  
Precipitation 0.15 in - - ()
Sea Level Pressure  
Sea Level Pressure 30.09 in    
Wind  
Wind Speed 4 mph (SE)    
Max Wind Speed 13 mph    
Max Gust Speed -    
Visibility 7 miles    
Events Rain , Snow    
Averages and records for this station are not official NWS values.
T = Trace of Precipitation, MM = Missing Value Source: NWS Daily Summary

Daily Weather History Graph

Daily Weather History Graph

Search for Another Location

Airport or City:

Trip Planner

Search our weather history database for the weather conditions in past years. The results will help you decide how hot, cold, wet, or windy it might be!

Date:

Astronomy

Nov. 05, 2012 Rise Set
Actual Time 7:07 AM CST 4:57 PM CST
Civil Twilight 6:35 AM CST 5:29 PM CST
Nautical Twilight 5:59 AM CST 6:05 PM CST
Astronomical Twilight 5:24 AM CST 6:40 PM CST
Moon 10:36 PM CST (11/5) 12:27 PM CST (11/5)
Length of Visible Light 10h 54m
Length of Day
9h 50m
Waning Gibbous, 62% of the Moon is Illuminated
Nov 5
Waning Gibbous
Nov 6
Last Quarter
Nov 13
New
Nov 20
First Quarter
Nov 28
Full

Hourly Weather History & Observations

Time (CST) Temp. Windchill Dew Point Humidity Pressure Visibility Wind Dir Wind Speed Gust Speed Precip Events Conditions
12:14 AM 35.6 °F 30.7 °F 26.6 °F 70% 30.19 in 10.0 mi NE 5.8 mph - N/A   Overcast
12:33 AM 35.6 °F 30.7 °F 26.6 °F 70% 30.19 in 10.0 mi ENE 5.8 mph - N/A   Overcast
12:53 AM 33.8 °F 28.6 °F 26.6 °F 75% 30.19 in 10.0 mi ENE 5.8 mph - N/A   Overcast
1:14 AM 33.8 °F 29.6 °F 26.6 °F 75% 30.19 in 10.0 mi ENE 4.6 mph - N/A   Overcast
1:33 AM 33.8 °F 28.6 °F 26.6 °F 75% 30.19 in 10.0 mi ENE 5.8 mph - N/A   Overcast
1:53 AM 33.8 °F 29.6 °F 26.6 °F 75% 30.20 in 10.0 mi ENE 4.6 mph - N/A   Overcast
2:14 AM 33.8 °F 29.6 °F 26.6 °F 75% 30.20 in 10.0 mi ENE 4.6 mph - N/A   Overcast
2:33 AM 33.8 °F 30.8 °F 26.6 °F 75% 30.20 in 10.0 mi East 3.5 mph - N/A   Overcast
2:53 AM 33.8 °F - 26.6 °F 75% 30.19 in 10.0 mi Calm Calm - N/A   Overcast
3:14 AM 33.8 °F 30.8 °F 26.6 °F 75% 30.19 in 10.0 mi ENE 3.5 mph - N/A   Overcast
3:33 AM 33.8 °F 30.8 °F 26.6 °F 75% 30.19 in 10.0 mi ENE 3.5 mph - N/A   Overcast
3:53 AM 33.8 °F 30.8 °F 26.6 °F 75% 30.19 in 10.0 mi ENE 3.5 mph - N/A   Overcast
4:13 AM 33.8 °F 30.8 °F 26.6 °F 75% 30.19 in 10.0 mi NE 3.5 mph - N/A   Overcast
4:33 AM 33.8 °F 30.8 °F 26.6 °F 75% 30.19 in 10.0 mi NE 3.5 mph - N/A   Overcast
4:53 AM 32.0 °F - 26.6 °F 80% 30.20 in 10.0 mi Calm Calm - N/A   Overcast
5:13 AM 32.0 °F 28.7 °F 26.6 °F 80% 30.19 in 10.0 mi NE 3.5 mph - N/A   Overcast
5:33 AM 32.0 °F 28.7 °F 26.6 °F 80% 30.19 in 10.0 mi ENE 3.5 mph - N/A   Overcast
5:53 AM 32.0 °F - 26.6 °F 80% 30.19 in 10.0 mi Calm Calm - N/A   Overcast
6:13 AM 32.0 °F - 26.6 °F 80% 30.19 in 10.0 mi Calm Calm - N/A   Overcast
6:33 AM 32.0 °F 28.7 °F 26.6 °F 80% 30.18 in 10.0 mi ENE 3.5 mph - N/A   Overcast
6:53 AM 32.0 °F - 26.6 °F 80% 30.18 in 10.0 mi Calm Calm - N/A   Overcast
7:14 AM 32.0 °F 28.7 °F 26.6 °F 80% 30.17 in 10.0 mi ENE 3.5 mph - N/A   Overcast
7:33 AM 32.0 °F - 26.6 °F 80% 30.18 in 10.0 mi Calm Calm - N/A   Overcast
7:53 AM 32.0 °F - 26.6 °F 80% 30.18 in 10.0 mi Calm Calm - N/A   Overcast
8:14 AM 32.0 °F - 26.6 °F 80% 30.18 in 10.0 mi Calm Calm - N/A   Overcast
8:33 AM 32.0 °F - 26.6 °F 80% 30.18 in 10.0 mi Calm Calm - N/A   Overcast
8:53 AM 32.0 °F 27.5 °F 26.6 °F 80% 30.18 in 10.0 mi ENE 4.6 mph - N/A   Overcast
9:13 AM 33.8 °F - 28.4 °F 81% 30.18 in 10.0 mi Calm Calm - N/A   Overcast
9:33 AM 33.8 °F 29.6 °F 26.6 °F 75% 30.18 in 10.0 mi East 4.6 mph - N/A   Overcast
9:54 AM 33.8 °F 30.8 °F 26.6 °F 75% 30.17 in 10.0 mi SE 3.5 mph - N/A   Overcast
10:13 AM 33.8 °F 29.6 °F 26.6 °F 75% 30.17 in 10.0 mi ESE 4.6 mph - N/A   Overcast
10:33 AM 33.8 °F 29.6 °F 26.6 °F 75% 30.17 in 10.0 mi SE 4.6 mph - N/A   Overcast
10:54 AM 33.8 °F 30.8 °F 26.6 °F 75% 30.16 in 10.0 mi ESE 3.5 mph - N/A   Overcast
11:13 AM 33.8 °F - 26.6 °F 75% 30.16 in 10.0 mi Calm Calm - N/A   Overcast
11:33 AM 33.8 °F - 28.4 °F 81% 30.16 in 10.0 mi Calm Calm - N/A   Overcast
11:54 AM 35.6 °F - 28.4 °F 75% 30.14 in 10.0 mi Calm Calm - N/A   Overcast
12:13 PM 35.6 °F 32.8 °F 28.4 °F 75% 30.14 in 10.0 mi SE 3.5 mph - N/A   Overcast
12:33 PM 35.6 °F 30.7 °F 28.4 °F 75% 30.13 in 10.0 mi SE 5.8 mph - N/A   Overcast
12:54 PM 35.6 °F 32.8 °F 30.2 °F 81% 30.12 in 10.0 mi SSE 3.5 mph - N/A   Overcast
1:13 PM 35.6 °F 29.9 °F 30.2 °F 81% 30.10 in 10.0 mi SSE 6.9 mph - N/A   Overcast
1:33 PM 35.6 °F 31.7 °F 30.2 °F 81% 30.09 in 10.0 mi SSE 4.6 mph - N/A   Overcast
1:54 PM 35.6 °F 29.9 °F 30.2 °F 81% 30.09 in 10.0 mi South 6.9 mph - N/A   Overcast
2:12 PM 35.6 °F 30.7 °F 30.2 °F 81% 30.08 in 7.0 mi South 5.8 mph - N/A   Overcast
2:33 PM 33.8 °F 28.6 °F 33.8 °F 100% 30.07 in 2.0 mi SSE 5.8 mph - N/A   Overcast
2:54 PM 33.8 °F 30.8 °F 33.8 °F 100% 30.06 in 1.8 mi SSE 3.5 mph - N/A   Mist
3:13 PM 33.8 °F 29.6 °F 33.8 °F 100% 30.06 in 1.5 mi SSE 4.6 mph - N/A   Overcast
3:53 PM 33.8 °F 29.6 °F 33.8 °F 100% 30.04 in 2.5 mi SSE 4.6 mph - N/A   Overcast
4:13 PM 33.8 °F 28.6 °F 33.8 °F 100% 30.04 in 4.0 mi South 5.8 mph - N/A   Overcast
4:33 PM 33.8 °F 27.7 °F 33.8 °F 100% 30.03 in 4.0 mi South 6.9 mph - N/A   Overcast
4:53 PM 33.8 °F 27.7 °F 33.8 °F 100% 30.03 in 5.0 mi South 6.9 mph - N/A   Overcast
5:13 PM 33.8 °F 28.6 °F 33.8 °F 100% 30.02 in 4.0 mi South 5.8 mph - N/A   Overcast
5:33 PM 33.8 °F 27.7 °F 33.8 °F 100% 30.01 in 3.0 mi South 6.9 mph - N/A   Overcast
5:53 PM 33.8 °F 29.6 °F 33.8 °F 100% 30.00 in 1.8 mi South 4.6 mph - N/A   Overcast
6:13 PM 33.8 °F 28.6 °F 33.8 °F 100% 30.00 in 1.5 mi South 5.8 mph - N/A   Overcast
6:33 PM 33.8 °F 28.6 °F 33.8 °F 100% 29.99 in 1.5 mi SSE 5.8 mph - N/A   Overcast
6:53 PM 33.8 °F 28.6 °F 33.8 °F 100% 29.98 in 1.0 mi South 5.8 mph - N/A   Overcast
7:13 PM 33.8 °F 29.6 °F 33.8 °F 100% 29.97 in 1.0 mi South 4.6 mph - N/A   Light Drizzle
7:33 PM 33.8 °F 28.6 °F 33.8 °F 100% 29.96 in 1.2 mi South 5.8 mph - N/A   Light Drizzle
7:53 PM 33.8 °F 28.6 °F 33.8 °F 100% 29.94 in 1.5 mi South 5.8 mph - N/A   Overcast
8:13 PM 33.8 °F 29.6 °F 33.8 °F 100% 29.93 in 1.5 mi South 4.6 mph - N/A   Overcast
8:34 PM 35.6 °F 30.7 °F 35.6 °F 100% 29.92 in 1.0 mi South 5.8 mph - N/A   Overcast
8:53 PM 35.6 °F 29.2 °F 35.6 °F 100% 29.91 in 1.5 mi SSW 8.1 mph - N/A   Overcast
9:13 PM 35.6 °F 29.2 °F 35.6 °F 100% 29.90 in 5.0 mi SSW 8.1 mph - N/A   Overcast
9:34 PM 35.6 °F 28.6 °F 35.6 °F 100% 29.90 in 5.0 mi SSW 9.2 mph - N/A   Overcast
9:53 PM 35.6 °F 28.6 °F 33.8 °F 93% 29.90 in 5.0 mi SSW 9.2 mph - N/A   Overcast
10:14 PM 35.6 °F 27.1 °F 33.8 °F 93% 29.88 in 4.0 mi South 12.7 mph - N/A Rain Light Rain
10:33 PM 33.8 °F 26.4 °F 33.8 °F 100% 29.87 in 4.0 mi South 9.2 mph - 0.02 in Rain Light Rain
10:53 PM 33.8 °F 25.8 °F 32.0 °F 93% 29.85 in 2.5 mi South 10.4 mph - 0.07 in Snow Light Snow
11:13 PM 32.0 °F 24.2 °F 32.0 °F 100% 29.83 in 2.5 mi South 9.2 mph - 0.03 in Snow Light Snow
11:33 PM 32.0 °F 24.8 °F 32.0 °F 100% 29.83 in 2.0 mi South 8.1 mph - 0.05 in Snow Light Snow
11:54 PM 30.2 °F 23.4 °F 30.2 °F 100% 29.82 in 2.0 mi South 6.9 mph - 0.08 in Snow Light Snow